TimeMST,TemperatureF,Dew PointF,Humidity,Sea Level PressureIn,VisibilityMPH,Wind Direction,Wind SpeedMPH,Gust SpeedMPH,PrecipitationIn,Events,Conditions,WindDirDegrees,DateUTC
12:36 AM,28.4,10.4,47,30.23,10.0,NW,6.9,-,N/A,,Clear,320,2013-01-06 07:36:00
1:15 AM,26.6,10.4,51,30.22,10.0,WNW,3.5,-,N/A,,Clear,300,2013-01-06 08:15:00
1:36 AM,30.2,8.6,40,30.22,10.0,NW,9.2,-,N/A,,Clear,320,2013-01-06 08:36:00
1:56 AM,26.6,6.8,43,30.22,10.0,WSW,3.5,-,N/A,,Clear,250,2013-01-06 08:56:00
2:36 AM,28.4,3.2,34,30.22,10.0,Calm,Calm,-,N/A,,Clear,0,2013-01-06 09:36:00
2:56 AM,28.4,1.4,31,30.21,10.0,Calm,Calm,-,N/A,,Clear,0,2013-01-06 09:56:00
3:16 AM,28.4,1.4,31,30.21,10.0,Calm,Calm,-,N/A,,Clear,0,2013-01-06 10:16:00
3:36 AM,26.6,1.4,34,30.20,10.0,Calm,Calm,-,N/A,,Clear,0,2013-01-06 10:36:00
3:55 AM,24.8,1.4,36,30.20,10.0,Calm,Calm,-,N/A,,Clear,0,2013-01-06 10:55:00
4:15 AM,24.8,1.4,36,30.19,10.0,Calm,Calm,-,N/A,,Clear,0,2013-01-06 11:15:00
4:36 AM,28.4,1.4,31,30.18,10.0,Calm,Calm,-,N/A,,Clear,0,2013-01-06 11:36:00
5:55 AM,26.6,-2.2,29,30.17,20.0,Calm,Calm,-,N/A,,Clear,0,2013-01-06 12:55:00
6:55 AM,30.2,-5.8,21,30.16,60.0,Calm,Calm,-,N/A,,Clear,0,2013-01-06 13:55:00
7:50 AM,24.8,-5.8,26,30.15,60.0,Variable,3.5,-,N/A,,Partly Cloudy,0,2013-01-06 14:50:00
8:50 AM,30.2,3.2,32,30.14,60.0,Calm,Calm,-,N/A,,Partly Cloudy,0,2013-01-06 15:50:00
9:46 AM,33.8,-0.4,23,30.14,60.0,Calm,Calm,-,N/A,,Partly Cloudy,0,2013-01-06 16:46:00
10:47 AM,39.2,-7.6,14,30.10,60.0,Calm,Calm,-,N/A,,Scattered Clouds,0,2013-01-06 17:47:00
11:50 AM,41.0,-5.8,14,30.06,60.0,Calm,Calm,-,N/A,,Scattered Clouds,0,2013-01-06 18:50:00
12:50 PM,44.6,-9.4,10,30.01,60.0,Calm,Calm,-,N/A,,Mostly Cloudy,0,2013-01-06 19:50:00
1:47 PM,46.4,-5.8,11,29.99,60.0,Calm,Calm,-,N/A,,Mostly Cloudy,0,2013-01-06 20:47:00
2:46 PM,46.4,-2.2,13,29.97,60.0,Variable,3.5,-,N/A,,Mostly Cloudy,0,2013-01-06 21:46:00
3:47 PM,41.0,5.0,23,29.96,60.0,North,6.9,-,N/A,,Mostly Cloudy,350,2013-01-06 22:47:00
4:46 PM,37.4,6.8,28,29.95,60.0,NNW,4.6,-,N/A,,Overcast,340,2013-01-06 23:46:00
5:47 PM,33.8,6.8,32,29.95,30.0,Calm,Calm,-,N/A,,Mostly Cloudy,0,2013-01-07 00:47:00
7:49 PM,35.6,6.8,30,29.95,20.0,WSW,3.5,-,N/A,,Mostly Cloudy,250,2013-01-07 02:49:00
8:47 PM,35.6,6.8,30,29.93,25.0,Calm,Calm,-,N/A,,Mostly Cloudy,0,2013-01-07 03:47:00
9:45 PM,35.6,6.8,30,29.92,20.0,SSE,6.9,-,N/A,,Mostly Cloudy,150,2013-01-07 04:45:00
10:36 PM,39.2,3.2,22,29.93,10.0,Calm,Calm,-,N/A,,Clear,0,2013-01-07 05:36:00
10:56 PM,35.6,6.8,30,29.93,10.0,SSE,3.5,-,N/A,,Clear,160,2013-01-07 05:56:00
11:16 PM,33.8,8.6,35,29.92,10.0,Calm,Calm,-,N/A,,Clear,0,2013-01-07 06:16:00
11:36 PM,39.2,1.4,21,29.93,10.0,Calm,Calm,-,N/A,,Clear,0,2013-01-07 06:36:00
11:56 PM,42.8,-2.2,15,29.92,10.0,Calm,Calm,-,N/A,,Clear,0,2013-01-07 06:56:00